sat.trackr.live / text

‹ back to catalog

TRANSPORTER-14 OBJECT E

NORAD 64532 · 2025-135E

PAYLOAD ACTIVE UNKNOWN

§ Identity

Operator
Country
TBD
Launch date
2025-06-23
Launch site
AFWTR
Launch vehicle
Mass (kg)
RCS (m²)

External: N2YO · Heavens-Above · Gunter

§ Orbital elements

Epoch: 2026-05-25T01:09:36.054144Z

Period
94.39 min
Inclination
97.4703°
Eccentricity
0.0003409
Mean motion
15.25647458 rev/d
Perigee alt
486.5 km
Apogee alt
491.2 km
Semi-major
6,867.0 km
B*
4.0481e-4
RAAN
261.2934°
Arg perigee
232.6512°
Mean anomaly
127.4416°
Rev number
5,139

§ Raw data

TRANSPORTER-14 OBJECT E1 64532U 25135E   26145.04833396  .00010232  00000+0  40481-3 0  99972 64532  97.4703 261.2934 0003409 232.6512 127.4416 15.25647458 51396

JSON: /api/v1/satellites/64532 · /tle

For live sub-satellite position, see the globe view (requires WebGL).

§ Visibility from observer

Set your observer location to see the next 7 days of passes ≥ 10°. The values pass through the URL so the page stays shareable.

No JS? Fill the form by hand. The geolocation button needs JavaScript.